Wind_Speed
5 5 6 7 8 9 11 12 13 14 14 15 16 17 18 19 20 21 21 22 22 21 21 20 20 19 18 18 17 16 15 15 15 15 15 15 15 15 13 12 11 11 10 9 8 9 9 8 8 9 9 8 7 7 7 7 8 8 7 5 4 3 5 5 4 4 4 5 7 7 7 5 2 2 2 3 5 3 3 3 2 1 0 1 2 4 4 4
3 3 4 5 7 8 10 11 12 13 14 15 16 17 19 20 21 21 22 22 22 22 21 21 20 20 19 19 18 17 15 14 14 14 14 14 14 14 13 12 11 11 10 10 9 10 10 9 8 9 10 10 8 8 9 9 9 9 8 6 4 5 7 7 7 6 5 5 5 6 7 7 5 4 3 4 6 5 3 5 4 0 0 2 3 3 3 4
2 2 3 4 6 7 9 10 12 13 14 16 17 18 19 20 21 22 23 23 22 22 21 20 20 20 19 19 19 18 15 13 13 12 12 13 13 13 12 12 12 11 11 11 10 10 11 11 9 9 10 10 10 10 10 10 9 9 8 6 6 8 9 9 9 8 6 5 4 3 5 7 7 6 5 4 6 6 4 5 6 3 1 2 3 4 3 3
2 2 3 4 5 6 8 9 11 12 14 16 17 18 19 21 22 22 23 23 23 22 21 20 19 19 18 18 18 18 16 13 12 12 11 11 12 13 12 12 12 11 12 11 10 11 12 12 10 10 11 11 11 11 11 10 9 9 8 7 8 10 10 10 10 10 8 6 4 2 3 5 7 6 4 3 3 4 4 5 6 5 4 2 4 5 3 3
3 3 3 3 4 5 7 8 10 12 14 15 17 18 19 21 22 23 23 23 23 22 21 20 18 18 17 16 16 17 16 13 12 12 11 11 11 12 12 12 11 11 12 12 11 11 12 12 11 11 11 12 12 11 10 10 9 8 8 8 9 10 11 12 12 12 9 7 6 3 1 2 6 6 3 2 2 4 5 5 4 6 5 3 4 5 4 3
4 4 4 4 4 5 6 8 10 11 13 15 16 18 20 21 22 22 23 23 22 22 21 19 18 17 15 15 14 15 15 13 12 12 11 11 10 10 11 11 11 11 11 11 11 11 12 12 12 11 11 12 12 10 10 10 9 9 9 8 9 10 11 13 13 13 12 9 7 6 4 2 3 5 3 3 3 4 5 4 3 5 6 5 5 5 5 4
4 5 5 5 5 6 6 7 9 11 13 15 16 18 19 21 22 22 23 23 22 21 20 19 17 16 14 14 13 13 13 13 14 12 11 11 10 9 10 10 10 11 11 11 11 11 12 12 11 10 11 12 11 9 10 11 10 10 9 8 9 10 12 14 14 15 13 10 9 7 6 4 2 3 3 3 4 5 5 5 4 5 6 6 6 5 5 4
5 5 5 6 6 6 6 7 9 11 12 14 16 17 19 20 21 22 22 22 22 21 20 18 17 15 14 13 12 12 13 13 13 12 11 11 11 10 9 9 9 10 10 10 10 10 10 10 10 9 10 10 9 10 12 13 12 11 10 8 9 10 12 14 15 15 13 10 9 8 7 6 4 1 3 3 4 5 6 6 5 6 7 7 8 6 5 4
5 6 6 6 7 6 7 7 8 10 12 14 15 17 18 20 21 22 22 22 21 21 19 18 16 15 13 12 11 12 13 12 12 11 10 10 10 10 9 9 8 8 9 10 10 10 9 8 9 9 10 9 9 11 13 12 13 12 10 8 8 10 12 14 16 15 12 10 9 8 7 7 6 4 3 3 4 5 6 6 5 6 6 7 8 5 5 4
6 6 7 7 7 7 7 7 8 9 11 13 14 16 18 19 20 21 22 22 21 20 19 17 16 15 13 11 9 11 13 12 12 11 9 9 9 10 10 9 8 8 8 9 10 9 8 8 8 9 9 9 11 13 12 12 12 11 9 8 8 11 13 15 16 14 11 10 9 8 8 9 9 7 5 2 2 4 5 7 6 6 6 6 7 5 6 5
7 7 7 8 8 8 8 8 8 9 11 12 14 15 17 18 20 21 21 21 20 19 18 17 16 15 14 12 10 10 12 13 12 11 10 9 9 10 10 9 9 8 8 8 8 8 8 9 9 9 10 10 12 12 11 11 11 11 10 10 10 12 13 14 15 13 11 10 8 8 8 10 11 8 6 3 2 4 6 7 7 7 7 7 7 6 7 6
7 7 8 8 8 8 8 8 9 9 10 12 13 15 16 18 19 20 20 20 19 18 17 16 16 15 15 13 12 11 12 13 13 12 11 11 10 10 10 9 9 8 8 8 8 8 9 10 11 11 11 11 12 11 10 10 11 11 12 12 11 11 12 13 14 12 11 9 8 8 8 12 12 8 9 7 4 4 6 9 9 8 8 7 7 7 8 7
7 8 8 9 9 9 9 9 9 9 10 11 13 14 16 17 19 19 20 19 18 17 16 15 15 15 14 14 13 13 13 14 14 14 13 12 11 11 10 10 9 9 9 8 9 9 9 11 12 12 12 13 14 12 11 11 11 11 12 12 11 11 13 13 13 12 12 10 9 8 7 12 14 11 11 11 7 6 7 10 11 9 10 10 8 9 9 8
8 8 9 9 10 10 10 10 10 10 11 11 12 13 15 16 18 19 19 18 18 17 16 15 14 14 14 13 13 14 14 15 15 15 15 13 11 12 12 11 10 10 9 9 9 9 9 11 12 13 12 14 14 13 12 11 10 9 11 13 13 13 14 14 14 13 12 10 11 10 8 12 16 13 13 13 11 10 9 12 14 11 12 13 11 11 10 8
8 9 9 10 10 10 10 10 10 11 11 11 12 13 14 15 17 18 18 18 17 16 15 14 13 14 13 12 11 12 13 14 15 15 15 14 13 12 12 12 12 11 10 10 9 9 9 10 12 13 13 14 15 14 13 10 8 8 11 14 15 14 14 14 14 12 12 12 12 12 10 12 16 14 13 15 14 12 10 12 15 13 12 15 14 12 10 9
9 9 10 10 11 11 11 11 11 11 11 11 12 12 13 15 15 16 17 17 16 16 14 13 13 13 12 11 11 11 11 11 12 13 14 15 14 12 12 13 13 12 11 11 10 9 10 11 12 13 13 14 14 13 11 9 8 8 11 14 13 13 13 14 14 12 12 12 13 14 12 12 15 15 14 15 16 14 13 12 15 16 14 17 16 12 10 10
10 10 10 11 11 12 12 12 12 12 12 12 12 12 13 14 14 15 16 16 16 16 15 14 14 13 12 11 11 11 12 12 12 13 14 13 13 13 12 12 13 13 13 12 11 10 10 11 12 12 13 12 12 12 10 9 9 9 11 12 11 12 13 13 14 13 13 13 14 14 14 14 16 17 16 16 17 16 16 12 15 17 14 18 17 12 10 9
11 11 11 12 12 12 13 13 13 12 12 12 12 12 13 13 14 14 15 15 15 15 14 14 14 14 13 12 12 12 13 13 13 14 14 12 11 12 12 12 13 14 14 14 13 12 12 12 12 12 13 12 11 12 11 10 12 13 12 11 11 12 13 14 14 14 14 14 14 15 15 16 17 17 18 19 19 19 17 13 15 14 13 18 16 12 11 10
11 11 12 12 12 13 13 13 13 13 12 12 12 12 12 13 13 14 14 14 14 14 14 14 14 15 14 13 13 13 15 15 15 14 14 13 12 11 11 11 12 13 14 14 14 14 13 13 13 12 13 13 13 14 14 15 17 16 14 12 12 12 13 14 14 14 14 14 14 15 16 16 16 16 17 19 20 19 14 16 18 14 14 18 16 13 13 11
12 12 12 13 13 13 14 14 13 13 13 12 12 12 13 13 13 13 14 14 13 13 14 14 14 15 15 14 13 14 15 16 15 14 14 15 13 12 11 11 11 11 12 14 15 15 15 14 14 15 16 16 16 16 17 18 18 17 16 14 14 13 14 14 14 13 13 13 14 15 15 15 15 16 17 17 17 14 14 20 20 18 18 19 17 14 13 10
13 13 13 13 13 13 14 14 14 13 13 13 13 13 13 13 13 13 14 13 13 13 13 13 14 15 15 14 13 13 14 15 14 14 14 14 13 12 11 11 11 10 11 13 14 16 16 16 17 18 19 19 18 18 18 18 18 16 15 15 13 13 13 14 15 14 12 12 13 14 14 13 14 15 16 15 13 11 14 20 21 22 20 19 17 15 13 11
14 13 13 13 13 13 14 14 14 13 13 13 13 13 13 13 13 14 14 13 13 13 12 13 13 14 15 13 12 12 12 13 13 13 13 13 13 11 11 11 11 11 11 12 13 14 16 18 20 21 20 20 20 19 19 19 18 16 16 16 14 14 15 15 16 16 14 14 13 13 13 12 13 13 14 12 10 6 13 22 24 23 20 19 19 16 15 14
15 14 13 13 13 13 14 14 14 13 13 13 14 14 14 14 14 14 14 14 14 13 13 13 13 14 13 13 12 12 12 13 14 13 14 14 13 11 11 10 10 10 10 10 10 13 16 19 20 21 21 21 20 21 21 21 20 19 19 18 16 16 17 17 18 18 17 16 15 13 12 11 11 10 10 9 7 1 16 24 23 21 19 20 21 18 16 16
15 15 14 14 14 13 14 14 14 13 13 14 15 14 14 15 15 15 14 14 14 14 14 14 14 13 13 13 13 13 13 14 15 15 15 15 14 11 10 10 9 8 7 7 8 11 14 16 18 20 20 20 21 22 23 22 22 22 20 19 18 18 18 18 19 19 19 18 16 14 10 8 8 7 7 7 6 3 14 19 18 17 17 18 18 17 15 16
15 15 14 14 14 14 14 15 14 14 14 14 15 15 15 15 15 15 14 13 14 15 14 14 14 14 14 14 13 13 14 15 15 16 16 16 14 11 10 9 7 6 5 5 6 7 10 13 17 19 19 20 22 22 22 22 22 21 20 19 18 18 19 20 20 20 20 20 17 14 9 7 7 5 4 5 4 5 8 11 12 13 16 16 16 16 15 15
16 16 15 14 14 15 15 15 14 14 15 15 15 15 15 16 16 16 15 14 15 15 15 14 14 15 15 14 14 14 15 15 15 16 16 15 13 11 9 9 8 7 7 6 4 5 8 12 15 17 19 20 21 21 22 21 21 20 20 19 18 20 21 22 23 22 22 20 17 14 10 8 7 4 2 2 2 5 5 7 10 12 14 14 16 16 14 15
17 16 16 15 15 15 16 15 15 15 16 15 15 16 16 16 16 16 15 14 15 16 15 14 14 16 16 15 15 15 15 15 16 15 14 13 12 11 9 9 8 8 9 8 7 7 9 11 14 16 19 21 21 21 21 20 19 19 19 19 19 21 22 24 24 24 23 21 17 14 11 8 7 5 3 2 3 5 6 8 10 12 13 13 14 15 14 15
17 17 17 17 16 16 16 16 16 16 16 16 16 17 16 16 16 16 15 15 15 15 15 15 16 16 16 16 16 16 16 16 15 13 12 12 11 10 9 8 8 8 9 9 10 10 10 11 14 17 19 21 21 20 19 19 17 17 18 18 18 20 21 22 23 24 25 21 17 14 11 9 9 6 5 5 4 4 6 9 11 13 14 14 14 14 14 15
19 18 18 18 17 17 17 17 17 17 17 17 17 17 18 17 16 16 15 14 14 15 15 16 16 16 17 16 16 16 15 14 13 12 12 10 9 8 7 8 8 9 9 11 12 11 10 12 14 16 19 21 21 20 19 18 17 16 17 16 17 19 20 20 20 22 22 19 16 15 12 9 10 8 6 6 6 4 5 8 11 13 15 15 16 15 15 16
20 20 19 19 18 18 18 18 18 18 17 18 18 18 19 18 17 17 15 14 14 15 16 16 16 16 17 16 15 14 13 13 11 10 9 9 9 8 7 8 9 9 10 12 14 13 12 13 14 16 18 21 21 21 21 20 19 18 16 16 17 19 19 18 17 17 16 15 15 15 12 9 9 10 8 6 7 6 6 7 9 12 14 16 17 17 16 16
22 21 21 21 20 20 19 19 19 19 18 18 19 19 20 19 18 18 16 15 16 16 16 16 15 16 16 15 14 13 12 11 10 9 8 7 8 8 8 8 8 8 9 11 15 16 14 13 14 15 17 20 21 22 23 22 21 19 17 17 18 18 19 18 17 16 12 11 14 15 12 9 8 10 10 9 8 8 7 7 7 9 14 18 18 17 18 18
23 23 23 23 22 22 21 20 20 20 19 19 19 20 20 20 19 19 18 17 17 16 16 15 15 15 15 15 14 13 11 9 9 9 8 5 4 5 6 7 8 8 9 10 14 16 15 13 13 14 15 16 17 19 21 20 20 19 18 18 18 19 20 18 17 16 13 11 14 15 11 9 9 10 12 11 9 9 9 9 8 8 12 18 20 19 19 19
25 25 25 24 24 23 22 22 21 21 20 19 20 20 21 21 20 20 20 19 17 16 15 14 15 15 14 14 14 13 11 9 8 7 6 4 4 4 5 6 7 8 8 9 12 14 14 12 11 12 13 13 15 16 17 17 17 17 17 18 18 19 20 19 19 18 15 12 15 16 14 11 10 11 13 12 10 11 11 11 10 10 10 13 19 23 21 19
27 27 27 27 26 25 24 23 22 22 21 20 20 21 21 22 22 22 22 21 18 16 15 14 15 15 14 15 14 13 11 10 8 5 2 3 5 5 4 5 7 7 8 9 10 11 12 11 11 12 13 13 13 14 15 16 16 15 15 16 16 18 19 18 19 18 14 12 14 17 16 14 13 13 14 14 13 12 12 12 11 11 10 8 11 19 20 18
29 29 29 29 28 28 27 25 24 23 23 22 21 21 21 23 24 24 23 22 19 17 15 15 15 15 15 16 15 14 13 11 10 6 3 2 3 3 2 2 4 6 7 8 9 11 10 11 13 13 13 12 12 14 14 14 14 13 13 13 14 16 16 15 16 16 14 12 12 14 14 15 17 16 15 15 16 15 14 13 13 12 11 9 8 12 15 15
31 30 31 31 31 30 29 28 26 26 25 24 22 21 22 24 25 25 24 22 20 18 16 16 16 16 16 16 15 14 13 12 12 9 6 5 5 5 4 1 1 3 6 6 7 10 12 12 14 14 13 12 12 13 13 13 13 12 12 13 15 17 17 16 17 17 16 14 14 13 12 15 18 18 17 17 18 18 17 16 15 13 12 11 10 11 13 13
32 31 32 32 32 32 31 30 29 28 27 26 24 22 23 25 26 25 24 23 20 18 17 17 17 16 17 18 17 15 13 11 12 12 9 8 8 8 7 4 1 3 5 6 7 10 12 13 14 14 14 14 13 12 12 12 12 12 14 15 17 19 20 20 20 20 20 18 17 14 13 15 18 19 20 19 19 21 20 19 17 15 13 12 12 12 13 13
36 34 33 33 33 33 33 33 32 30 29 28 26 24 25 26 26 26 25 23 20 19 19 19 18 17 17 18 17 16 15 12 12 13 11 11 11 10 7 5 4 5 6 6 6 7 9 10 13 15 15 16 15 14 13 13 13 13 15 16 16 19 22 22 22 23 23 21 20 17 15 15 17 19 21 22 22 23 22 21 19 18 16 14 14 14 14 15
38 37 36 36 35 34 34 34 34 32 31 29 27 26 26 26 27 27 25 23 21 19 19 19 18 17 16 17 18 18 17 14 14 14 12 11 12 10 7 5 6 8 10 9 8 8 8 8 11 15 16 18 18 16 16 15 15 14 15 15 15 18 21 23 24 25 24 23 22 21 18 17 17 18 20 22 24 25 24 22 21 20 19 17 15 15 15 15
37 37 37 37 36 36 37 37 36 34 32 31 29 28 27 27 29 28 26 24 22 20 20 20 18 17 15 16 18 20 20 18 17 16 14 13 13 11 9 9 10 12 14 14 13 12 11 10 12 15 17 18 19 19 19 18 18 17 17 16 15 17 19 21 25 26 26 25 24 23 20 19 18 18 19 21 24 27 26 24 21 21 21 20 18 16 16 16
35 36 35 35 36 37 38 38 37 35 34 33 31 30 29 28 29 29 27 24 21 20 20 20 20 19 17 16 18 21 22 19 18 16 16 16 15 13 12 13 13 14 15 15 16 15 14 13 14 17 19 19 20 21 21 21 20 20 20 19 17 17 18 20 23 26 27 27 27 25 22 19 19 19 18 19 22 26 26 24 22 21 21 22 21 19 17 17
31 32 32 31 32 34 36 37 37 37 36 35 33 31 29 28 28 29 28 24 21 20 20 20 22 21 19 17 18 23 24 21 18 16 16 17 16 15 15 15 15 16 16 16 17 17 17 17 17 18 20 21 22 23 22 22 22 21 22 22 20 19 19 19 21 24 26 28 28 27 24 20 19 20 20 19 20 24 26 25 22 20 19 22 23 22 19 18
29 30 30 30 30 31 32 34 35 36 36 35 33 32 30 28 27 28 28 25 22 21 20 21 23 23 21 19 18 22 25 23 20 18 17 18 17 17 18 19 19 19 18 17 16 16 16 17 18 19 20 22 23 24 23 23 22 21 22 22 22 22 22 22 22 23 25 27 28 29 27 23 21 21 22 21 20 22 25 25 23 21 19 20 22 22 21 20
28 29 29 29 29 29 30 31 31 32 33 32 32 32 30 28 27 28 29 26 23 23 22 22 23 23 22 19 17 21 25 23 21 19 18 18 19 19 20 21 22 21 20 18 15 14 14 16 17 18 20 21 22 23 23 23 22 22 22 22 22 23 24 24 24 24 25 27 28 30 29 26 24 23 23 23 21 21 23 24 24 23 21 21 21 22 22 21
27 28 28 28 28 27 27 27 26 27 28 29 30 31 29 27 27 28 28 26 25 25 24 22 23 23 21 19 17 20 25 25 22 21 20 19 20 21 21 21 22 22 23 21 16 14 15 16 16 17 19 20 22 23 23 23 23 23 22 22 21 21 23 25 26 26 27 27 29 30 30 29 28 26 24 23 22 21 22 23 24 24 23 21 21 21 21 22
25 26 25 26 26 26 24 23 23 23 25 26 28 29 29 28 27 26 27 27 27 25 23 22 23 22 21 19 18 21 24 25 24 23 22 20 19 20 20 21 21 23 25 24 19 15 16 16 15 15 17 19 21 22 22 23 24 23 22 21 20 20 21 23 25 26 27 28 30 31 31 31 30 29 27 26 24 23 22 22 23 25 24 22 21 21 21 22
23 24 23 23 25 25 23 22 21 21 22 23 26 27 28 28 27 25 26 27 27 25 24 23 24 24 23 21 20 21 24 25 24 24 24 23 21 21 21 21 22 23 25 26 23 20 17 16 14 14 15 17 19 21 22 22 23 22 22 20 19 18 19 20 23 24 26 27 28 30 32 32 31 31 31 29 29 27 25 23 23 24 24 22 21 21 20 21
22 23 23 22 23 24 23 22 21 21 21 22 25 26 27 27 26 25 25 27 28 27 25 25 25 25 25 24 22 22 24 24 24 24 24 25 25 26 26 26 26 26 27 28 28 25 20 16 14 14 14 16 18 19 20 21 21 20 19 19 19 19 19 19 20 22 23 24 25 27 30 32 32 33 33 33 33 31 28 26 24 23 24 24 22 21 20 21
22 23 23 22 22 23 24 24 23 23 23 24 25 26 26 26 26 25 26 26 28 29 27 26 26 26 27 26 24 24 25 24 22 23 23 23 25 26 27 28 28 28 28 28 28 26 21 17 16 16 16 17 17 18 19 19 20 19 19 19 20 20 20 20 20 20 21 21 22 24 27 29 31 33 34 35 35 34 31 28 26 24 25 25 25 23 21 21
22 22 22 22 22 22 23 24 24 24 25 25 26 26 26 26 25 26 26 26 28 30 28 26 27 27 27 27 25 26 28 27 24 23 23 24 25 26 26 26 26 26 27 26 27 25 22 21 20 19 19 19 19 19 18 19 19 19 19 19 20 20 20 19 19 19 19 19 20 22 23 26 29 31 33 34 35 36 34 32 30 28 26 26 26 25 23 22
22 22 22 22 22 22 23 24 25 25 26 26 26 26 26 26 26 26 27 27 28 30 30 27 26 27 27 26 25 27 30 30 28 26 25 26 27 27 26 26 25 25 25 25 26 25 24 24 23 23 22 21 21 21 19 18 19 19 19 19 19 18 18 17 17 18 18 19 20 21 22 24 27 30 32 33 34 35 35 35 33 31 29 27 25 25 25 24
22 22 21 22 22 22 23 24 25 26 26 26 25 26 26 25 26 26 28 29 29 30 30 28 26 27 27 26 26 27 29 31 30 28 28 28 29 29 28 28 27 27 25 24 24 24 25 25 25 25 24 22 22 21 20 19 18 19 19 19 18 18 17 16 16 17 18 19 20 21 22 24 26 28 30 32 33 34 35 35 34 32 30 28 25 24 27 26
Wind_Direction
65 52 39 31 25 21 19 17 15 11 8 6 4 2 0 358 356 354 351 349 346 343 341 339 337 336 334 334 331 325 316 305 295 287 278 274 272 270 267 261 256 256 258 254 249 247 246 243 241 248 255 253 242 232 220 211 214 221 225 214 202 228 242 241 230 209 192 169 150 144 148 150 163 149 145 242 268 295 302 290 252 161 115 270 314 348 348 0
58 42 29 23 18 14 13 12 10 7 5 4 2 1 359 357 355 353 351 349 346 344 342 340 339 339 340 342 342 338 330 320 309 297 285 277 273 270 267 262 255 251 253 253 246 245 246 243 238 242 250 253 247 237 227 221 217 215 214 207 211 238 244 246 248 235 215 201 180 162 155 153 159 160 158 236 271 297 314 299 287 233 210 270 301 325 327 350
31 18 13 12 10 7 6 6 4 3 3 1 1 359 357 356 354 352 350 348 346 344 342 340 339 339 342 347 349 348 342 335 326 312 295 283 277 273 269 263 257 250 248 249 246 243 244 241 233 233 241 247 247 244 240 234 225 219 217 205 211 234 242 245 247 243 232 223 208 175 157 156 161 167 168 205 265 301 319 303 304 314 288 291 299 295 306 343
333 339 349 355 357 357 357 359 359 359 359 359 358 357 355 354 353 351 349 347 345 343 341 338 337 338 341 347 351 351 350 345 335 323 307 292 280 275 271 265 258 250 245 246 245 241 242 241 232 228 236 242 243 248 250 244 232 227 227 218 220 234 242 245 247 246 241 238 239 214 142 146 152 162 180 207 260 297 310 308 316 313 296 291 290 284 297 339
310 315 323 331 338 343 347 350 353 355 356 356 356 355 354 353 352 350 348 346 343 341 338 335 335 335 339 345 349 352 350 344 336 331 323 306 288 278 273 266 260 253 246 246 244 239 239 240 235 228 233 242 245 249 253 250 240 232 232 231 234 241 248 250 250 251 246 243 250 247 213 148 145 156 181 216 257 290 305 311 318 305 295 286 283 290 304 334
300 302 306 313 319 327 335 341 346 350 352 353 353 353 352 351 350 348 346 344 342 339 336 333 332 333 335 340 346 348 344 339 338 337 335 326 306 287 278 270 261 254 249 247 246 241 237 237 236 230 229 241 251 254 255 253 244 237 236 235 238 245 252 253 251 253 249 243 249 253 249 237 163 155 169 201 239 273 293 305 308 297 298 292 285 294 306 325
294 295 297 299 305 314 323 332 339 345 348 350 351 351 350 349 348 346 344 342 340 337 334 331 330 329 329 334 342 342 334 333 338 339 340 338 328 305 285 275 266 256 252 252 250 244 240 238 236 232 229 237 248 250 250 249 242 240 243 240 239 245 253 255 255 255 251 245 246 252 252 257 241 153 156 198 224 241 260 278 288 289 293 290 282 287 299 309
290 291 290 292 297 304 314 323 332 339 344 346 347 348 347 346 346 345 343 341 339 336 333 329 326 323 323 330 340 339 327 325 332 335 335 335 333 321 296 280 273 264 258 257 257 251 246 242 238 237 235 235 234 233 238 239 235 240 246 248 247 250 257 261 259 256 252 246 248 255 259 267 269 202 161 196 218 226 245 258 266 272 277 281 278 278 286 288
287 287 287 288 291 296 305 314 325 334 339 342 344 345 344 344 344 343 342 340 338 336 333 329 323 317 317 324 336 338 328 322 322 323 326 325 325 324 310 290 280 277 270 264 263 261 254 247 243 241 238 231 221 220 222 221 224 236 245 251 258 261 264 265 259 254 251 248 252 261 269 275 272 261 233 213 231 237 245 255 255 254 263 277 279 275 270 267
282 284 285 285 287 291 296 305 317 327 333 337 340 341 342 342 342 342 341 340 338 336 333 329 321 313 310 313 327 335 329 326 320 312 313 316 316 317 314 301 287 284 283 277 271 265 255 246 242 240 232 220 216 216 213 208 215 230 239 248 260 263 267 265 257 252 249 249 257 266 276 280 275 272 264 238 267 265 255 260 258 244 247 268 275 269 259 254
280 282 283 284 284 286 290 298 309 320 327 332 336 338 340 341 341 341 341 340 339 337 335 330 323 312 305 303 311 322 324 328 327 316 306 301 305 308 308 303 292 284 285 287 280 261 245 238 236 232 223 217 219 220 216 210 212 218 223 233 245 253 261 260 254 250 249 249 260 271 282 282 278 284 296 327 321 281 265 263 258 242 237 249 259 257 251 247
280 281 282 283 283 283 286 293 302 312 320 326 331 335 338 339 340 340 340 341 340 339 337 333 327 317 307 300 299 305 313 320 324 324 312 296 290 295 299 297 290 282 279 282 278 261 245 235 231 227 219 220 225 225 223 218 216 214 215 222 230 241 250 249 246 247 249 252 262 270 283 286 290 308 320 333 332 285 268 260 255 237 225 234 244 244 244 243
280 281 282 282 282 281 283 289 297 305 313 321 328 333 336 338 338 339 340 341 342 342 340 336 333 326 317 304 295 295 301 308 313 318 317 305 288 282 286 288 285 279 275 273 275 272 257 241 233 228 221 222 225 225 226 223 220 218 214 216 219 230 239 237 238 243 248 254 262 265 273 282 294 315 319 321 316 292 271 253 252 237 217 221 233 234 237 238
281 281 282 282 281 281 283 287 292 299 308 316 324 331 335 336 337 338 340 341 342 342 341 340 340 340 334 318 302 295 295 299 304 307 311 310 298 282 276 278 279 275 272 270 273 274 263 250 240 235 229 227 228 224 226 227 225 218 211 213 218 227 232 230 233 240 249 257 262 265 267 277 290 304 307 305 298 296 288 256 252 246 218 214 224 228 229 234
281 281 281 282 282 282 283 285 289 295 303 312 321 328 332 334 336 338 339 341 341 340 339 341 343 345 344 336 322 309 303 302 303 305 305 303 299 288 275 269 269 267 264 263 267 268 260 253 245 241 239 234 231 227 226 229 229 216 208 212 219 227 230 229 234 241 252 259 262 265 269 276 285 295 296 295 292 296 300 266 247 243 219 207 217 223 222 229
282 282 282 282 283 283 283 284 287 292 299 308 317 324 328 332 335 337 338 339 338 337 337 340 342 343 347 346 340 331 325 321 318 315 308 300 295 289 278 266 261 259 257 254 255 258 256 253 249 247 247 243 238 233 224 221 225 216 211 217 223 230 232 233 237 244 253 258 262 266 272 276 280 289 293 292 290 288 295 276 241 237 220 200 207 215 218 226
285 284 284 284 285 285 284 284 285 290 296 305 313 320 326 330 333 335 336 337 336 334 335 336 336 338 342 343 342 340 338 337 334 324 314 307 299 290 280 268 258 253 251 247 244 245 246 249 250 250 251 250 247 239 224 215 225 222 217 223 227 229 231 231 235 243 250 255 262 267 275 277 278 287 295 296 293 286 285 268 229 231 220 194 195 202 215 222
287 287 287 287 286 286 285 284 285 289 295 303 311 317 323 327 329 331 332 333 333 332 332 332 331 333 336 337 339 341 339 337 335 327 316 308 300 289 279 268 257 248 245 243 238 237 237 238 241 247 249 248 245 240 232 224 227 225 221 226 230 231 231 230 233 241 248 254 262 269 275 278 280 286 295 298 296 292 280 241 210 220 210 186 181 185 205 210
288 288 288 288 287 287 286 285 286 289 294 302 309 312 318 323 325 327 329 330 330 329 329 330 331 332 333 336 337 338 337 334 331 326 314 304 296 288 280 271 260 251 246 242 237 234 233 233 233 236 239 240 237 235 235 233 230 227 224 225 229 234 237 235 237 243 250 257 262 270 276 281 287 291 295 299 299 291 259 209 196 202 192 177 170 178 199 206
286 287 287 287 287 287 287 285 286 289 294 300 306 310 314 319 321 324 325 326 325 324 326 328 328 329 331 336 337 336 334 330 328 325 315 306 300 294 287 279 271 262 253 246 239 233 230 228 225 223 226 229 227 227 232 236 237 234 230 226 224 232 242 244 246 248 254 261 264 273 280 288 295 296 301 307 304 280 220 191 189 193 186 172 166 178 197 203
283 284 285 286 287 288 287 286 287 290 295 299 304 307 311 314 317 319 320 322 323 321 321 323 325 326 329 333 334 332 329 326 327 325 317 310 305 299 291 283 275 266 257 249 242 236 229 220 216 218 222 225 225 226 231 237 241 241 240 238 236 242 250 252 254 255 259 264 269 277 285 295 298 301 311 314 306 274 210 185 183 186 182 170 168 179 191 196
281 282 283 285 286 288 288 287 289 292 296 298 299 303 308 311 312 315 317 318 319 318 317 318 320 322 324 326 325 323 323 324 324 323 319 314 308 302 295 285 276 268 261 252 245 240 230 222 221 222 224 225 227 229 232 237 242 245 245 246 250 255 256 255 256 258 262 265 270 279 288 299 300 307 322 321 313 276 188 179 181 180 176 170 172 181 189 194
280 281 282 284 285 287 289 288 290 295 298 296 295 300 305 308 309 312 314 315 317 316 314 313 314 315 315 315 315 315 317 319 321 323 323 320 315 310 302 291 283 276 265 253 245 238 233 231 231 231 231 230 230 230 232 234 238 241 244 247 252 256 256 257 259 260 264 266 267 276 289 300 302 313 329 336 344 218 179 178 180 176 173 174 176 182 188 193
278 281 282 284 285 287 289 289 292 297 297 294 295 299 303 305 309 310 312 315 316 315 313 312 311 310 307 306 308 309 311 313 317 321 324 324 322 316 305 295 285 271 256 239 233 236 238 238 236 235 236 235 233 232 231 231 233 237 241 246 251 254 255 257 259 262 265 268 268 274 287 297 302 319 334 350 18 155 185 182 180 174 171 173 177 182 184 187
278 281 282 285 286 288 289 289 293 296 294 293 295 299 302 304 308 309 312 314 313 312 312 311 310 307 303 303 305 306 307 308 312 318 323 325 322 313 297 284 269 247 232 219 223 241 245 240 236 235 234 233 234 234 233 233 235 239 242 246 251 253 255 256 257 260 263 265 266 269 278 285 294 314 331 352 52 121 171 178 174 167 164 171 179 180 179 183
280 282 284 286 288 289 289 291 295 294 293 294 296 298 301 303 306 308 311 313 312 311 312 311 310 307 305 306 306 306 305 306 311 318 322 323 317 305 285 270 256 232 223 221 226 250 248 241 241 239 234 233 235 236 237 240 241 243 244 245 247 248 250 252 254 256 259 261 262 263 267 274 281 287 299 339 102 129 141 156 161 161 165 175 181 180 181 186
279 282 285 287 289 290 290 293 295 294 294 296 296 298 300 302 305 308 308 308 308 311 312 310 308 307 307 306 305 304 304 307 312 319 322 320 308 293 276 264 248 227 225 225 226 240 246 246 247 242 235 233 235 236 239 245 247 247 248 246 246 248 250 253 255 256 255 255 255 255 257 262 268 268 254 239 166 165 169 167 170 174 177 180 181 184 188 188
277 281 284 286 289 290 292 293 294 295 296 297 298 299 300 302 305 306 306 304 305 308 308 306 305 305 304 304 303 302 303 307 314 321 322 314 295 278 263 251 234 222 223 219 219 229 236 239 242 240 234 233 237 241 244 250 252 251 253 251 248 249 251 254 257 258 253 251 253 253 248 250 258 259 243 231 207 185 188 188 188 189 190 189 186 188 190 189
276 279 282 285 287 289 291 292 293 295 297 298 299 299 299 302 303 303 303 302 301 302 303 303 304 303 303 304 304 303 304 310 318 324 321 306 284 265 245 233 225 219 217 210 208 217 224 223 228 232 232 233 238 245 249 250 248 246 249 252 251 251 252 254 256 257 253 250 256 255 244 241 251 250 236 229 227 211 202 203 203 202 204 202 197 195 195 193
274 277 280 283 285 287 289 290 292 295 297 298 299 298 298 300 301 301 300 298 296 298 299 299 300 300 302 304 304 303 307 312 319 325 319 298 270 250 232 225 225 215 208 200 191 194 204 206 212 221 227 231 235 241 246 245 241 239 243 247 250 254 257 258 261 263 261 258 260 256 240 229 246 248 236 229 231 222 214 220 218 212 212 211 207 205 202 198
272 276 278 281 283 285 287 289 290 293 296 298 298 297 297 298 299 299 299 296 294 295 297 299 300 301 303 304 301 301 306 311 318 328 324 296 264 248 232 221 219 211 203 194 186 189 196 199 206 215 221 227 232 237 241 241 236 235 239 243 245 252 259 264 269 272 273 263 258 257 240 216 233 249 241 233 230 227 224 228 229 219 214 213 213 212 208 206
269 273 275 278 280 282 284 286 288 290 295 297 297 297 297 297 298 296 294 292 291 292 296 299 300 302 306 306 299 297 301 308 319 328 329 312 275 264 251 232 221 213 207 199 193 196 200 200 207 216 221 225 226 231 237 239 239 238 239 242 242 246 254 262 271 275 276 262 253 256 243 211 217 240 243 240 236 235 234 228 226 222 214 211 213 214 213 211
267 270 272 275 277 279 281 283 285 288 292 295 297 297 296 297 296 292 290 288 288 290 291 292 295 300 304 301 296 296 295 297 310 325 337 329 303 300 293 267 242 226 220 215 207 206 206 207 212 217 223 228 226 231 238 240 243 243 239 240 240 243 251 259 267 271 272 259 245 244 235 211 212 234 241 242 242 244 242 233 227 223 216 214 215 214 214 214
267 268 270 272 274 277 279 280 283 285 289 292 296 297 297 296 293 289 287 287 287 288 287 287 292 298 297 295 295 297 292 288 294 304 324 319 307 305 298 274 257 239 229 231 228 222 213 207 213 217 221 229 233 237 243 244 245 243 238 238 240 244 250 255 263 269 270 260 246 242 234 215 212 227 237 239 240 245 245 237 233 229 226 225 214 209 210 215
269 269 269 270 272 274 276 277 280 283 286 289 294 298 299 294 289 287 286 287 287 286 283 284 288 291 291 292 294 295 291 283 283 285 254 247 293 304 280 254 265 253 235 237 246 245 230 212 215 223 225 232 240 243 247 251 252 251 247 244 243 248 252 255 263 273 279 276 265 254 242 224 217 221 231 238 239 242 245 239 234 232 232 232 219 206 205 213
269 269 269 269 270 271 273 275 277 279 281 284 290 297 297 291 288 288 287 287 287 284 281 279 281 285 286 288 289 289 288 279 276 284 273 251 266 281 277 249 251 246 226 228 251 260 254 233 224 230 236 242 249 252 254 254 251 252 253 250 249 254 260 262 267 275 281 282 278 268 251 233 225 225 230 238 241 242 244 243 238 233 233 232 231 225 219 220
269 268 268 268 269 269 270 272 273 274 276 280 285 292 294 291 289 287 286 286 285 281 278 275 277 281 282 286 290 287 284 275 269 277 276 267 271 275 280 289 270 239 232 235 252 259 255 245 238 239 243 247 250 253 257 256 250 247 248 251 254 257 261 263 264 267 273 279 279 274 260 241 233 233 235 239 243 244 244 245 242 236 233 231 230 232 232 232
268 268 267 267 268 269 269 269 270 271 273 276 281 286 290 289 287 285 284 285 283 277 274 272 275 278 278 281 283 279 277 267 257 263 266 268 273 273 280 304 314 297 274 257 255 255 249 249 256 258 257 259 260 257 257 257 254 248 246 250 254 254 257 260 260 262 267 274 277 274 268 255 242 238 240 241 242 243 244 246 246 241 236 233 230 229 233 235
267 267 267 266 267 267 268 268 268 269 270 273 276 280 284 286 285 285 285 285 283 277 272 271 274 278 277 276 274 269 267 259 249 255 262 266 271 272 278 295 298 292 284 275 268 262 252 250 263 268 268 269 271 268 263 259 258 256 252 252 254 254 256 257 258 262 266 270 274 273 270 265 257 248 244 244 244 242 242 244 246 245 241 237 232 230 232 235
266 267 267 267 266 266 266 267 267 268 269 270 271 274 278 282 284 286 287 285 283 278 273 273 274 274 272 273 273 268 262 255 250 253 258 261 265 272 280 280 278 281 283 285 281 272 259 248 253 262 265 268 269 267 264 262 262 264 262 257 255 257 259 257 257 259 262 266 269 271 271 269 267 261 250 244 243 244 242 240 241 244 244 242 237 233 233 231
265 266 266 267 267 266 265 265 265 266 266 266 267 270 275 280 283 284 285 283 280 275 271 270 270 268 265 266 269 265 258 252 250 251 253 257 263 270 274 273 275 281 284 284 281 274 266 256 252 256 259 259 258 258 260 261 261 264 266 265 260 258 259 259 258 258 259 261 264 266 268 268 267 268 263 251 243 242 242 240 238 240 243 244 242 238 235 232
265 265 267 268 268 268 267 266 265 264 263 264 266 268 272 276 279 279 279 277 273 268 264 263 264 265 266 266 264 260 253 246 244 248 251 253 257 259 260 264 273 280 282 283 281 277 274 269 264 263 260 255 252 252 255 258 258 260 263 265 264 261 261 260 260 259 258 258 259 261 263 264 266 267 268 264 252 243 242 241 239 240 241 242 244 243 238 234
265 266 268 270 270 271 270 267 265 262 261 262 264 265 268 271 272 273 272 270 266 263 260 257 259 261 262 264 263 256 249 242 241 245 247 248 251 254 258 266 275 282 288 290 285 278 274 271 268 266 260 253 251 253 256 259 261 261 262 263 262 261 261 261 260 261 259 257 258 259 259 259 264 265 265 266 263 252 246 242 239 240 241 239 241 245 242 236
267 267 269 270 271 272 271 268 265 262 261 260 260 261 262 263 264 264 264 264 261 258 255 253 255 259 260 263 265 254 244 240 241 244 245 247 251 256 263 270 278 285 290 290 282 274 275 275 271 267 263 256 252 255 258 262 263 264 265 265 263 259 258 259 260 260 260 259 258 258 257 257 261 264 264 264 264 260 253 246 240 238 241 239 239 244 245 241
269 268 269 270 271 272 271 270 266 262 259 257 256 256 255 254 253 255 258 258 255 252 252 252 254 259 262 265 270 257 241 236 239 244 248 251 255 260 266 272 278 282 285 287 284 279 286 291 281 269 266 263 259 257 259 262 264 265 266 266 266 263 259 258 259 260 261 261 259 258 257 257 257 260 261 260 261 262 259 252 243 239 240 240 240 244 245 243
270 269 269 270 271 272 272 271 267 261 255 253 251 250 249 246 244 246 251 254 254 253 254 255 255 259 260 262 267 259 242 235 238 244 248 252 256 262 266 270 274 278 283 288 290 287 294 300 288 270 267 269 267 264 262 264 267 269 269 268 267 266 263 261 260 262 263 262 261 260 258 256 255 256 258 257 257 261 262 257 249 242 240 240 242 246 247 243
272 271 270 269 271 273 273 271 266 259 253 249 247 246 245 241 237 238 243 248 252 253 252 253 254 255 255 253 255 251 241 236 238 242 247 251 254 258 263 267 272 276 282 287 289 290 295 297 285 274 274 276 275 273 269 268 270 272 272 272 273 272 270 267 265 264 265 265 264 261 259 257 255 254 255 255 256 260 262 261 256 249 244 243 244 247 248 246
275 273 271 270 270 271 272 270 266 260 255 249 246 246 244 239 233 233 236 242 248 250 248 249 252 253 253 253 251 245 239 236 239 244 248 251 254 257 260 265 270 274 278 283 286 287 290 285 274 271 277 280 278 275 271 268 269 271 274 278 280 280 280 277 273 269 268 269 267 262 258 257 257 255 254 254 256 259 259 260 260 257 250 245 244 244 246 248
274 273 272 270 269 268 268 268 266 262 258 253 250 249 245 238 232 232 233 236 243 248 247 246 250 252 252 255 257 251 240 235 239 249 255 257 258 261 263 267 271 274 276 280 283 285 287 284 275 272 275 279 277 273 270 269 269 273 278 280 282 284 287 287 283 277 272 270 268 263 258 257 257 257 256 254 254 255 256 256 258 261 256 249 243 242 245 249
273 272 272 271 269 267 266 265 264 262 259 256 254 252 247 239 233 233 233 232 238 245 246 245 247 250 250 252 258 257 248 239 236 242 253 261 264 266 268 272 275 276 276 279 282 284 287 288 285 282 281 282 279 273 270 269 271 276 280 280 281 285 289 290 288 284 278 273 269 265 260 258 257 257 256 255 253 252 252 253 255 259 259 253 245 242 245 250
275 271 270 270 269 268 266 264 262 260 258 257 254 251 247 241 236 234 233 233 235 241 245 245 243 246 249 251 254 256 253 247 240 237 243 255 261 265 268 272 275 275 277 281 284 286 287 289 291 291 290 289 283 276 270 267 270 276 279 278 280 284 286 287 286 284 281 277 273 269 264 260 258 256 255 255 254 252 251 251 253 255 255 253 248 243 246 251
278 274 271 269 269 268 265 263 262 259 258 256 253 249 245 241 237 235 234 234 236 238 242 244 242 244 248 249 250 252 251 248 245 241 241 247 254 260 263 266 270 273 275 280 284 288 289 291 294 294 292 290 285 276 268 265 270 276 277 276 279 281 284 286 287 288 286 282 277 273 269 265 262 259 257 254 253 251 250 249 250 251 250 251 250 245 245 251
Height
5896 5896 5896 5895 5895 5895 5895 5894 5894 5893 5893 5892 5891 5890 5889 5888 5887 5886 5885 5883 5882 5881 5879 5878 5877 5876 5875 5874 5873 5872 5871 5871 5871 5871 5871 5871 5871 5871 5872 5873 5873 5873 5874 5874 5875 5875 5875 5875 5875 5875 5875 5876 5876 5876 5876 5877 5878 5879 5879 5880 5880 5881 5882 5882 5883 5883 5883 5883 5884 5885 5885 5886 5886 5886 5886 5885 5884 5884 5884 5884 5884 5884 5883 5884 5884 5884 5884 5884
5896 5896 5896 5895 5895 5895 5895 5894 5894 5893 5893 5892 5891 5890 5889 5888 5887 5886 5884 5883 5881 5880 5879 5877 5876 5875 5874 5873 5872 5871 5870 5870 5869 5869 5869 5869 5869 5870 5871 5871 5872 5872 5873 5873 5873 5874 5874 5875 5875 5875 5875 5875 5876 5876 5876 5876 5877 5878 5879 5879 5880 5880 5881 5882 5882 5883 5882 5883 5883 5885 5886 5886 5886 5887 5886 5885 5884 5884 5885 5884 5884 5884 5884 5884 5883 5884 5884 5884
5896 5896 5896 5895 5895 5895 5895 5894 5894 5893 5893 5892 5891 5890 5889 5888 5886 5885 5883 5882 5881 5879 5878 5876 5875 5874 5873 5873 5872 5871 5870 5869 5868 5868 5868 5868 5868 5869 5869 5870 5871 5871 5872 5872 5872 5873 5873 5874 5875 5875 5874 5874 5875 5875 5876 5876 5877 5878 5878 5879 5879 5880 5881 5881 5882 5882 5882 5882 5883 5884 5885 5886 5886 5886 5886 5886 5885 5884 5884 5884 5884 5884 5884 5884 5883 5884 5884 5884
5896 5896 5895 5895 5895 5895 5895 5894 5894 5893 5892 5891 5890 5889 5888 5887 5886 5884 5883 5881 5880 5879 5877 5876 5875 5874 5873 5872 5871 5871 5870 5869 5868 5868 5867 5867 5867 5867 5868 5869 5869 5870 5870 5871 5872 5872 5872 5873 5874 5874 5874 5874 5874 5875 5876 5876 5877 5877 5878 5878 5879 5880 5880 5881 5882 5882 5882 5882 5882 5883 5884 5885 5886 5886 5885 5885 5884 5884 5884 5884 5884 5884 5884 5884 5884 5884 5884 5884
5896 5896 5895 5895 5895 5895 5894 5894 5893 5893 5892 5891 5890 5889 5888 5886 5885 5884 5882 5881 5880 5878 5877 5875 5874 5873 5872 5872 5871 5870 5869 5869 5868 5867 5867 5867 5866 5866 5867 5867 5868 5868 5869 5870 5870 5871 5871 5871 5872 5873 5873 5873 5874 5875 5875 5876 5877 5877 5877 5878 5879 5880 5881 5881 5882 5882 5882 5882 5882 5882 5883 5884 5885 5885 5885 5884 5884 5883 5883 5884 5884 5884 5884 5884 5884 5884 5884 5884
5896 5895 5895 5895 5895 5894 5894 5894 5893 5892 5892 5891 5890 5888 5887 5886 5885 5883 5882 5880 5879 5877 5876 5875 5873 5873 5872 5872 5871 5870 5869 5869 5868 5867 5867 5866 5866 5866 5866 5866 5867 5867 5868 5868 5869 5870 5870 5870 5871 5872 5873 5873 5873 5874 5875 5876 5876 5876 5877 5878 5878 5879 5880 5881 5881 5881 5882 5881 5881 5881 5882 5883 5884 5885 5885 5884 5884 5883 5883 5884 5884 5884 5884 5885 5885 5884 5884 5884
5895 5895 5895 5894 5894 5894 5894 5893 5893 5892 5891 5890 5889 5888 5887 5885 5884 5883 5881 5880 5878 5877 5875 5874 5873 5872 5871 5871 5871 5870 5869 5868 5868 5867 5867 5866 5866 5865 5865 5865 5866 5866 5867 5867 5868 5868 5869 5870 5870 5871 5872 5873 5873 5874 5875 5875 5876 5876 5876 5878 5878 5879 5880 5880 5881 5881 5880 5880 5880 5880 5881 5881 5882 5884 5884 5884 5884 5884 5883 5883 5884 5884 5884 5884 5885 5885 5884 5884
5895 5894 5894 5894 5894 5893 5893 5892 5892 5891 5890 5889 5888 5887 5886 5885 5884 5882 5881 5879 5877 5876 5874 5873 5872 5871 5871 5870 5870 5870 5869 5868 5868 5867 5866 5866 5866 5865 5865 5865 5865 5865 5866 5866 5867 5868 5869 5869 5870 5871 5872 5873 5873 5874 5874 5875 5875 5876 5876 5877 5878 5879 5879 5880 5880 5880 5879 5879 5879 5879 5880 5880 5881 5882 5883 5883 5883 5883 5883 5883 5884 5884 5884 5884 5884 5884 5884 5884
5894 5894 5893 5893 5893 5892 5892 5892 5891 5890 5890 5889 5888 5887 5886 5884 5883 5881 5880 5878 5877 5875 5874 5873 5871 5870 5870 5870 5870 5869 5868 5868 5867 5867 5866 5866 5865 5865 5865 5865 5865 5865 5865 5866 5866 5867 5868 5869 5869 5870 5870 5871 5872 5873 5874 5874 5875 5875 5876 5877 5877 5878 5879 5880 5880 5879 5878 5878 5878 5878 5878 5878 5879 5880 5881 5881 5882 5882 5882 5883 5883 5884 5883 5884 5884 5884 5884 5884
5893 5893 5893 5892 5892 5892 5891 5891 5890 5889 5889 5888 5887 5886 5885 5884 5882 5881 5879 5877 5876 5874 5873 5872 5871 5870 5869 5869 5869 5869 5867 5867 5867 5866 5866 5866 5865 5865 5865 5864 5865 5865 5865 5865 5866 5867 5867 5868 5868 5868 5869 5870 5871 5872 5873 5873 5874 5874 5875 5876 5877 5877 5878 5879 5879 5878 5878 5877 5877 5877 5877 5877 5877 5878 5879 5881 5881 5882 5882 5882 5883 5883 5883 5883 5883 5883 5884 5884
5892 5892 5892 5891 5891 5891 5890 5890 5889 5888 5888 5887 5886 5885 5884 5883 5881 5880 5878 5877 5875 5874 5872 5871 5870 5869 5868 5868 5869 5868 5867 5866 5866 5865 5865 5865 5865 5865 5864 5864 5864 5864 5865 5865 5865 5865 5866 5866 5867 5867 5868 5869 5870 5870 5871 5872 5872 5873 5874 5875 5876 5877 5878 5878 5878 5877 5877 5877 5876 5876 5876 5876 5876 5877 5878 5880 5881 5881 5881 5881 5881 5882 5882 5882 5882 5883 5883 5883
5892 5891 5891 5891 5890 5890 5889 5889 5888 5887 5887 5886 5885 5884 5883 5882 5880 5879 5877 5876 5874 5873 5872 5870 5869 5868 5867 5867 5867 5867 5866 5866 5865 5864 5864 5864 5864 5864 5864 5864 5864 5864 5864 5864 5864 5864 5865 5865 5865 5866 5868 5868 5868 5869 5870 5871 5871 5872 5873 5874 5875 5876 5876 5876 5876 5876 5876 5876 5876 5876 5876 5874 5874 5876 5877 5879 5880 5880 5880 5880 5880 5881 5881 5882 5881 5882 5882 5882
5891 5890 5890 5890 5889 5889 5888 5888 5887 5886 5886 5885 5884 5883 5882 5881 5879 5878 5876 5875 5874 5872 5871 5870 5869 5868 5867 5866 5866 5866 5866 5865 5864 5864 5863 5863 5863 5863 5863 5863 5863 5863 5863 5863 5863 5863 5864 5864 5865 5865 5867 5867 5867 5868 5869 5870 5871 5871 5872 5873 5874 5874 5874 5875 5875 5875 5875 5875 5875 5875 5875 5874 5874 5875 5876 5876 5877 5878 5878 5878 5878 5879 5880 5880 5881 5881 5881 5882
5890 5889 5889 5889 5888 5888 5887 5887 5886 5885 5885 5884 5883 5882 5881 5879 5878 5877 5875 5874 5873 5872 5870 5869 5868 5867 5866 5865 5865 5865 5864 5864 5863 5863 5863 5862 5861 5861 5861 5861 5862 5862 5862 5862 5863 5863 5863 5863 5864 5865 5866 5866 5867 5868 5868 5869 5870 5870 5871 5872 5872 5872 5873 5873 5874 5874 5874 5874 5874 5874 5875 5874 5873 5875 5875 5874 5874 5875 5876 5876 5876 5877 5878 5879 5880 5880 5880 5881
5889 5888 5888 5887 5887 5887 5886 5886 5885 5884 5884 5883 5882 5881 5880 5878 5877 5876 5875 5873 5872 5871 5870 5869 5868 5867 5866 5865 5864 5864 5863 5863 5862 5862 5862 5861 5860 5860 5860 5860 5860 5861 5861 5861 5862 5862 5862 5863 5863 5864 5865 5865 5866 5867 5868 5868 5869 5869 5870 5870 5871 5871 5871 5872 5873 5873 5873 5873 5873 5873 5874 5874 5873 5873 5873 5872 5872 5873 5874 5874 5874 5875 5877 5878 5878 5879 5880 5881
5888 5887 5887 5886 5886 5886 5885 5885 5884 5883 5883 5882 5881 5880 5878 5877 5876 5875 5874 5872 5871 5870 5869 5868 5867 5867 5866 5865 5864 5863 5863 5862 5861 5861 5861 5860 5859 5859 5858 5858 5859 5859 5860 5860 5861 5861 5861 5862 5863 5863 5864 5865 5865 5866 5867 5868 5868 5869 5869 5869 5870 5870 5870 5871 5872 5872 5873 5873 5873 5872 5873 5874 5872 5872 5872 5871 5870 5871 5871 5871 5872 5873 5874 5876 5877 5878 5879 5881
5887 5886 5886 5885 5885 5884 5884 5883 5883 5882 5881 5881 5880 5878 5877 5876 5875 5874 5873 5871 5870 5869 5868 5867 5866 5866 5865 5865 5864 5863 5862 5861 5861 5860 5860 5859 5858 5858 5857 5857 5857 5858 5858 5859 5859 5860 5860 5861 5862 5862 5863 5864 5865 5866 5867 5868 5868 5868 5869 5869 5870 5870 5870 5871 5871 5871 5871 5871 5871 5871 5872 5872 5871 5870 5869 5869 5868 5868 5868 5868 5869 5870 5872 5874 5876 5878 5880 5881
5885 5885 5885 5884 5884 5883 5883 5882 5882 5881 5880 5880 5879 5877 5876 5875 5874 5873 5872 5870 5870 5869 5868 5867 5866 5865 5864 5864 5863 5862 5862 5861 5860 5860 5859 5858 5857 5857 5856 5856 5856 5856 5857 5857 5858 5858 5859 5860 5860 5861 5862 5863 5864 5865 5866 5867 5867 5867 5868 5869 5869 5869 5869 5869 5870 5870 5870 5870 5870 5871 5871 5871 5870 5869 5867 5866 5865 5864 5864 5865 5867 5869 5871 5873 5876 5878 5880 5880
5884 5884 5883 5883 5882 5882 5881 5881 5880 5880 5879 5878 5877 5876 5875 5874 5873 5872 5871 5870 5869 5868 5867 5866 5865 5864 5863 5863 5862 5861 5861 5860 5859 5859 5858 5858 5857 5856 5855 5855 5855 5855 5855 5856 5856 5857 5858 5858 5859 5860 5861 5862 5863 5864 5864 5865 5865 5866 5867 5868 5869 5869 5869 5869 5869 5868 5869 5869 5869 5869 5869 5869 5868 5867 5866 5864 5862 5860 5860 5862 5865 5868 5870 5873 5875 5877 5878 5879
5883 5882 5882 5882 5881 5880 5880 5879 5879 5878 5878 5877 5876 5875 5874 5873 5872 5871 5870 5869 5868 5867 5866 5865 5864 5863 5862 5862 5861 5860 5860 5859 5858 5858 5857 5856 5855 5855 5854 5854 5854 5854 5854 5854 5855 5856 5856 5857 5858 5859 5859 5860 5861 5862 5862 5863 5863 5864 5866 5867 5868 5869 5869 5868 5868 5867 5867 5868 5868 5868 5868 5868 5867 5865 5864 5862 5860 5857 5857 5860 5863 5866 5869 5871 5873 5875 5877 5879
5881 5881 5881 5880 5880 5879 5878 5878 5877 5877 5877 5876 5875 5874 5873 5872 5871 5870 5869 5868 5867 5866 5865 5864 5863 5862 5862 5861 5861 5860 5859 5859 5858 5857 5856 5855 5854 5853 5852 5852 5852 5852 5853 5853 5854 5854 5855 5855 5856 5857 5857 5858 5859 5860 5861 5861 5862 5863 5864 5865 5867 5867 5867 5867 5867 5867 5866 5867 5867 5867 5867 5866 5865 5864 5863 5860 5858 5856 5857 5859 5862 5865 5867 5869 5871 5874 5877 5878
5880 5880 5879 5879 5878 5878 5877 5876 5876 5876 5875 5874 5874 5873 5871 5871 5870 5869 5868 5867 5866 5866 5865 5864 5863 5861 5861 5861 5860 5859 5859 5858 5857 5857 5855 5854 5853 5852 5851 5851 5850 5851 5851 5852 5853 5853 5854 5854 5854 5854 5855 5856 5857 5859 5859 5860 5861 5862 5863 5864 5865 5865 5866 5866 5866 5866 5866 5866 5866 5865 5865 5865 5865 5863 5862 5859 5857 5856 5856 5859 5861 5864 5866 5868 5870 5874 5876 5877
5878 5878 5878 5878 5877 5877 5876 5875 5875 5874 5874 5873 5872 5871 5870 5869 5869 5868 5867 5866 5865 5865 5864 5863 5862 5861 5860 5860 5859 5859 5858 5858 5857 5856 5854 5853 5852 5851 5850 5849 5850 5850 5851 5851 5852 5852 5852 5852 5853 5853 5854 5855 5856 5857 5858 5859 5860 5861 5862 5863 5863 5864 5864 5864 5865 5865 5865 5865 5865 5864 5865 5865 5864 5863 5862 5859 5857 5857 5857 5859 5861 5863 5865 5867 5870 5873 5875 5876
5877 5877 5877 5876 5876 5875 5875 5874 5873 5873 5872 5871 5871 5870 5869 5868 5867 5867 5866 5865 5864 5864 5863 5862 5861 5860 5860 5859 5859 5858 5857 5856 5855 5854 5853 5852 5850 5850 5849 5848 5849 5849 5850 5850 5851 5851 5851 5851 5852 5853 5853 5854 5855 5856 5856 5858 5859 5860 5861 5862 5862 5863 5863 5863 5864 5864 5864 5864 5864 5864 5864 5864 5864 5863 5862 5860 5858 5859 5859 5860 5862 5863 5865 5869 5871 5873 5875 5876
5876 5876 5875 5875 5875 5874 5873 5873 5872 5872 5871 5870 5869 5869 5868 5867 5866 5865 5865 5864 5863 5863 5862 5861 5860 5859 5858 5858 5857 5857 5856 5855 5854 5853 5852 5850 5849 5849 5848 5848 5848 5848 5848 5849 5849 5850 5850 5851 5851 5852 5853 5853 5854 5855 5856 5857 5858 5859 5861 5861 5862 5861 5862 5862 5862 5862 5863 5863 5863 5863 5864 5864 5864 5863 5863 5861 5860 5860 5861 5862 5863 5864 5867 5870 5872 5873 5875 5876
5874 5874 5874 5874 5873 5872 5872 5871 5871 5870 5869 5868 5868 5867 5866 5865 5865 5864 5863 5863 5862 5861 5860 5860 5859 5858 5857 5857 5856 5855 5855 5854 5853 5851 5850 5849 5848 5848 5847 5847 5847 5847 5847 5848 5849 5849 5850 5850 5851 5851 5852 5852 5853 5854 5855 5856 5857 5858 5859 5860 5860 5860 5860 5860 5860 5861 5861 5862 5862 5863 5863 5864 5864 5863 5863 5862 5862 5862 5863 5864 5865 5866 5868 5870 5872 5873 5874 5876
5873 5872 5872 5872 5872 5871 5870 5870 5869 5868 5867 5867 5866 5866 5865 5864 5863 5862 5862 5861 5861 5860 5859 5858 5857 5856 5856 5855 5855 5854 5853 5852 5851 5850 5849 5848 5847 5847 5846 5846 5846 5846 5846 5847 5848 5849 5849 5850 5851 5851 5851 5851 5852 5853 5854 5855 5856 5857 5857 5858 5859 5858 5858 5858 5859 5859 5860 5861 5861 5861 5862 5863 5863 5863 5863 5863 5863 5863 5863 5865 5866 5868 5869 5870 5872 5873 5874 5875
5871 5871 5870 5870 5870 5870 5869 5868 5868 5867 5866 5865 5865 5864 5863 5863 5862 5861 5861 5860 5860 5859 5858 5857 5856 5855 5854 5854 5853 5853 5852 5851 5850 5849 5848 5847 5846 5846 5846 5845 5845 5845 5845 5846 5847 5848 5848 5849 5850 5851 5851 5851 5851 5852 5853 5854 5855 5855 5855 5856 5857 5857 5857 5857 5858 5858 5858 5859 5860 5860 5862 5862 5862 5863 5863 5863 5863 5863 5864 5865 5866 5868 5868 5870 5872 5873 5874 5875
5869 5869 5869 5868 5868 5868 5867 5866 5866 5865 5864 5864 5863 5862 5862 5861 5860 5860 5859 5859 5858 5857 5857 5856 5854 5853 5853 5852 5852 5851 5850 5849 5849 5848 5847 5846 5846 5845 5845 5845 5844 5844 5845 5845 5846 5847 5847 5848 5849 5850 5851 5851 5851 5852 5852 5853 5853 5853 5853 5854 5855 5855 5855 5856 5856 5857 5857 5858 5859 5859 5861 5862 5862 5862 5862 5863 5863 5863 5864 5864 5865 5867 5868 5869 5871 5872 5873 5874
5867 5867 5867 5866 5866 5866 5865 5865 5864 5864 5863 5862 5861 5860 5860 5859 5859 5858 5858 5857 5857 5856 5855 5854 5853 5852 5851 5851 5850 5850 5849 5848 5848 5847 5846 5846 5845 5845 5845 5844 5844 5844 5844 5845 5846 5846 5846 5847 5848 5849 5850 5850 5850 5851 5851 5851 5852 5852 5853 5853 5853 5853 5854 5855 5855 5856 5857 5858 5858 5858 5860 5861 5861 5861 5862 5862 5862 5863 5863 5864 5864 5865 5867 5868 5869 5871 5872 5874
5864 5864 5864 5864 5864 5864 5863 5863 5862 5862 5861 5860 5859 5858 5858 5857 5857 5856 5856 5855 5855 5854 5854 5853 5853 5852 5851 5850 5849 5849 5848 5847 5847 5846 5846 5846 5845 5845 5844 5844 5844 5844 5845 5845 5846 5846 5846 5847 5848 5848 5849 5849 5849 5850 5849 5850 5850 5851 5852 5852 5852 5852 5853 5853 5854 5855 5857 5858 5857 5857 5859 5861 5861 5861 5861 5861 5862 5862 5863 5863 5863 5864 5865 5867 5868 5870 5871 5872
5862 5862 5862 5861 5861 5861 5861 5861 5860 5860 5859 5858 5857 5856 5856 5855 5855 5855 5854 5854 5853 5853 5852 5852 5851 5851 5850 5849 5849 5848 5847 5846 5846 5845 5845 5845 5845 5845 5845 5844 5844 5844 5845 5845 5846 5846 5847 5847 5848 5848 5848 5848 5848 5848 5848 5848 5849 5850 5850 5851 5851 5852 5852 5853 5853 5854 5855 5857 5857 5857 5858 5860 5860 5860 5860 5860 5861 5862 5862 5862 5863 5863 5864 5865 5867 5868 5870 5871
5859 5859 5859 5859 5859 5859 5859 5858 5858 5857 5857 5856 5855 5854 5854 5853 5853 5852 5852 5852 5852 5851 5851 5850 5850 5849 5849 5849 5848 5847 5846 5846 5845 5845 5845 5844 5844 5844 5844 5844 5844 5845 5845 5845 5846 5846 5847 5847 5848 5848 5848 5848 5848 5847 5847 5847 5848 5848 5849 5850 5850 5851 5851 5852 5852 5853 5854 5855 5855 5855 5857 5859 5859 5859 5859 5860 5860 5861 5861 5862 5862 5863 5863 5864 5865 5866 5868 5870
5856 5856 5856 5856 5856 5856 5856 5856 5855 5855 5854 5854 5853 5852 5852 5851 5850 5850 5849 5849 5850 5850 5849 5849 5848 5847 5847 5847 5847 5847 5846 5845 5845 5845 5844 5844 5844 5844 5844 5844 5844 5845 5845 5845 5846 5846 5847 5847 5847 5847 5847 5847 5847 5847 5847 5847 5847 5847 5848 5849 5850 5850 5850 5851 5851 5852 5853 5853 5853 5854 5855 5857 5858 5858 5858 5859 5859 5859 5860 5861 5862 5862 5863 5864 5864 5865 5867 5869
5853 5853 5853 5853 5853 5853 5853 5853 5853 5853 5852 5851 5851 5850 5850 5848 5847 5847 5847 5847 5848 5848 5847 5847 5846 5846 5846 5845 5845 5845 5844 5844 5844 5844 5844 5844 5844 5844 5843 5843 5843 5844 5845 5845 5845 5846 5847 5847 5846 5846 5847 5847 5847 5847 5847 5847 5847 5847 5847 5848 5849 5849 5849 5850 5850 5850 5851 5852 5852 5853 5855 5856 5857 5857 5857 5858 5858 5858 5859 5860 5861 5862 5863 5864 5865 5865 5867 5868
5849 5850 5850 5849 5850 5849 5849 5850 5850 5850 5849 5849 5849 5848 5847 5846 5845 5845 5845 5845 5846 5846 5845 5845 5845 5844 5844 5843 5844 5844 5843 5843 5843 5843 5843 5843 5843 5843 5843 5843 5843 5844 5845 5845 5845 5845 5846 5846 5846 5846 5846 5847 5847 5847 5847 5847 5847 5847 5847 5848 5848 5848 5848 5849 5849 5849 5849 5850 5851 5852 5853 5854 5855 5856 5856 5856 5857 5857 5858 5859 5861 5862 5863 5864 5865 5865 5866 5867
5845 5846 5846 5846 5846 5846 5846 5846 5846 5847 5846 5846 5847 5846 5845 5843 5842 5842 5843 5843 5844 5844 5843 5843 5843 5843 5842 5841 5841 5842 5842 5842 5841 5841 5842 5842 5841 5842 5842 5842 5843 5843 5844 5845 5845 5844 5845 5845 5845 5845 5846 5846 5847 5847 5847 5846 5846 5847 5847 5847 5847 5847 5847 5848 5848 5848 5848 5849 5849 5850 5851 5852 5854 5855 5855 5855 5855 5855 5857 5858 5860 5861 5862 5863 5864 5864 5865 5866
5840 5841 5842 5842 5842 5842 5842 5842 5843 5843 5843 5844 5844 5843 5842 5841 5840 5839 5840 5841 5841 5841 5841 5840 5841 5841 5840 5839 5839 5839 5840 5841 5840 5840 5840 5840 5840 5841 5841 5841 5841 5842 5843 5843 5843 5843 5843 5844 5844 5844 5845 5845 5845 5846 5846 5846 5846 5846 5846 5846 5846 5846 5846 5846 5846 5846 5846 5847 5847 5848 5849 5850 5851 5853 5853 5854 5854 5854 5855 5857 5858 5860 5861 5862 5863 5863 5864 5864
5835 5836 5837 5837 5838 5838 5838 5838 5838 5839 5840 5841 5841 5841 5839 5838 5837 5837 5838 5838 5839 5839 5839 5838 5839 5839 5839 5838 5838 5837 5838 5839 5839 5839 5839 5839 5839 5839 5840 5840 5840 5841 5841 5841 5842 5842 5842 5842 5842 5842 5842 5842 5843 5844 5844 5844 5844 5844 5845 5845 5845 5845 5845 5844 5844 5845 5845 5845 5846 5846 5847 5848 5849 5850 5851 5852 5852 5853 5853 5855 5856 5858 5859 5860 5861 5862 5863 5863
5831 5831 5832 5832 5833 5834 5834 5834 5834 5836 5837 5837 5838 5837 5837 5835 5834 5834 5835 5836 5836 5837 5836 5836 5837 5837 5837 5837 5837 5836 5836 5836 5837 5837 5838 5838 5838 5838 5839 5839 5839 5840 5840 5840 5840 5840 5840 5841 5841 5840 5840 5840 5841 5841 5841 5842 5842 5842 5843 5843 5843 5843 5843 5843 5843 5843 5843 5843 5843 5844 5845 5846 5847 5848 5849 5850 5851 5851 5852 5853 5855 5856 5857 5859 5860 5860 5861 5862
5826 5826 5827 5828 5828 5829 5829 5829 5830 5832 5832 5833 5834 5834 5834 5833 5832 5831 5832 5833 5834 5834 5834 5834 5834 5834 5835 5835 5835 5835 5835 5835 5835 5836 5836 5836 5837 5838 5838 5838 5838 5838 5839 5838 5838 5838 5839 5839 5839 5838 5838 5838 5838 5838 5838 5839 5839 5840 5840 5841 5841 5841 5841 5841 5841 5841 5841 5841 5841 5842 5843 5844 5845 5846 5846 5847 5848 5849 5851 5852 5853 5854 5855 5856 5857 5859 5860 5860
5822 5822 5822 5823 5824 5824 5824 5824 5826 5827 5827 5828 5830 5831 5831 5830 5829 5828 5828 5830 5831 5831 5831 5832 5831 5832 5832 5833 5833 5833 5833 5833 5833 5834 5835 5835 5836 5836 5836 5836 5837 5837 5837 5837 5837 5837 5837 5837 5837 5836 5836 5836 5836 5836 5836 5836 5837 5837 5838 5838 5839 5839 5839 5839 5839 5839 5839 5839 5839 5839 5840 5842 5843 5844 5844 5845 5846 5847 5848 5850 5852 5853 5853 5854 5855 5856 5858 5859
5817 5818 5818 5819 5819 5819 5819 5820 5821 5821 5822 5824 5826 5827 5827 5827 5826 5825 5825 5826 5828 5828 5829 5829 5829 5829 5830 5831 5831 5830 5831 5831 5831 5832 5833 5833 5834 5834 5834 5835 5835 5835 5836 5836 5836 5836 5835 5835 5834 5834 5833 5834 5834 5834 5834 5834 5834 5835 5835 5836 5836 5837 5837 5837 5837 5837 5837 5837 5837 5837 5837 5839 5841 5842 5842 5843 5843 5844 5846 5847 5850 5851 5851 5852 5852 5853 5855 5856
5813 5814 5814 5814 5814 5815 5815 5815 5816 5817 5818 5820 5821 5822 5823 5823 5822 5821 5821 5822 5824 5824 5825 5826 5826 5827 5827 5828 5828 5828 5828 5829 5830 5830 5831 5831 5832 5832 5832 5833 5833 5834 5834 5834 5834 5834 5833 5833 5832 5832 5831 5832 5832 5832 5832 5832 5832 5832 5833 5833 5834 5834 5834 5834 5834 5835 5834 5834 5835 5834 5835 5837 5839 5839 5840 5840 5841 5842 5843 5845 5847 5848 5849 5849 5850 5851 5852 5854
5809 5810 5810 5810 5810 5810 5810 5810 5812 5813 5814 5816 5816 5817 5818 5818 5818 5818 5818 5819 5820 5821 5822 5824 5824 5825 5825 5826 5826 5826 5826 5827 5828 5828 5829 5830 5830 5830 5830 5831 5831 5831 5832 5832 5833 5833 5832 5831 5831 5830 5830 5830 5830 5830 5830 5830 5830 5830 5830 5830 5831 5831 5831 5831 5831 5832 5832 5832 5832 5832 5832 5834 5835 5836 5837 5838 5838 5839 5840 5842 5844 5846 5847 5847 5848 5849 5850 5851
5805 5806 5807 5806 5806 5806 5807 5807 5808 5809 5810 5811 5811 5812 5813 5814 5814 5815 5816 5816 5817 5818 5821 5822 5823 5823 5823 5823 5824 5824 5824 5825 5826 5826 5827 5828 5828 5829 5829 5829 5829 5829 5829 5830 5831 5831 5830 5830 5830 5829 5828 5828 5828 5828 5828 5828 5827 5827 5828 5828 5828 5828 5829 5829 5829 5829 5829 5829 5829 5829 5830 5831 5832 5834 5835 5835 5836 5837 5838 5839 5841 5842 5844 5845 5846 5847 5848 5849
5802 5802 5803 5803 5802 5802 5803 5804 5805 5805 5806 5807 5807 5807 5808 5810 5811 5813 5813 5813 5814 5816 5818 5820 5820 5820 5820 5820 5821 5822 5822 5822 5823 5824 5825 5826 5826 5827 5827 5827 5827 5827 5827 5828 5828 5828 5829 5829 5828 5828 5827 5827 5826 5826 5826 5825 5825 5825 5825 5825 5826 5826 5826 5826 5826 5826 5826 5826 5826 5827 5827 5828 5829 5831 5832 5832 5833 5834 5835 5837 5838 5839 5841 5842 5843 5844 5845 5846
5799 5798 5799 5800 5800 5799 5800 5801 5801 5802 5803 5803 5803 5803 5804 5806 5808 5810 5811 5811 5811 5813 5815 5817 5817 5817 5817 5818 5818 5819 5819 5820 5821 5822 5823 5824 5824 5825 5825 5825 5825 5825 5825 5825 5826 5826 5827 5827 5827 5826 5826 5825 5824 5824 5823 5823 5823 5823 5823 5823 5823 5823 5823 5823 5823 5823 5823 5823 5823 5823 5824 5824 5826 5827 5828 5829 5830 5831 5833 5834 5835 5836 5837 5839 5840 5841 5843 5844
5796 5795 5796 5796 5797 5797 5797 5797 5798 5798 5799 5799 5800 5800 5802 5804 5805 5806 5808 5808 5808 5809 5812 5814 5814 5815 5816 5816 5817 5818 5818 5818 5819 5820 5821 5822 5822 5823 5823 5823 5824 5823 5823 5824 5823 5823 5824 5825 5824 5824 5824 5823 5822 5821 5821 5821 5821 5821 5821 5821 5821 5820 5820 5820 5819 5819 5819 5819 5820 5820 5820 5821 5822 5823 5824 5826 5827 5828 5829 5831 5832 5833 5834 5835 5837 5838 5840 5841
5792 5792 5792 5793 5793 5793 5794 5794 5794 5795 5795 5796 5796 5797 5799 5801 5802 5803 5805 5806 5806 5806 5808 5811 5812 5813 5813 5814 5815 5816 5816 5816 5816 5817 5818 5819 5820 5820 5821 5821 5822 5822 5821 5821 5821 5821 5822 5822 5822 5822 5822 5821 5820 5819 5819 5819 5819 5819 5819 5819 5819 5818 5818 5817 5817 5816 5816 5816 5816 5816 5817 5818 5819 5819 5821 5822 5823 5824 5826 5827 5829 5830 5831 5832 5833 5835 5836 5838
5789 5789 5789 5789 5789 5790 5790 5790 5791 5791 5791 5792 5793 5794 5796 5798 5799 5800 5801 5802 5803 5803 5805 5808 5810 5811 5811 5812 5813 5814 5814 5814 5815 5816 5816 5817 5817 5818 5819 5819 5819 5819 5819 5819 5819 5819 5820 5820 5819 5819 5819 5819 5818 5817 5817 5818 5818 5818 5817 5817 5817 5816 5816 5815 5814 5814 5814 5814 5813 5813 5814 5815 5815 5816 5817 5818 5819 5820 5822 5823 5825 5826 5828 5829 5830 5832 5833 5834
5785 5785 5785 5785 5785 5786 5786 5786 5787 5787 5787 5789 5790 5791 5793 5795 5796 5797 5798 5798 5800 5801 5802 5805 5807 5808 5808 5809 5810 5811 5812 5813 5814 5814 5815 5815 5815 5816 5816 5817 5817 5817 5817 5817 5817 5817 5817 5817 5817 5816 5816 5816 5816 5815 5815 5816 5816 5816 5815 5815 5815 5814 5814 5813 5812 5812 5811 5811 5811 5811 5811 5811 5811 5812 5813 5814 5815 5816 5817 5819 5821 5823 5824 5826 5827 5829 5830 5831